Weather History for Greenville, ME

Change the Weather History Date:

Saturday, November 12, 2011

  Actual Average (KMLT) Record (KMLT)
Temperature  
Mean Temperature 34 °F 36 °F  
Max Temperature 41 °F 43 °F 70 °F (1903)
Min Temperature 28 °F 29 °F 14 °F (1999)
Degree Days  
Heating Degree Days 30 29  
Month to date heating degree days 322  
Since 1 July heating degree days 1256  
Cooling Degree Days 0 0  
Month to date cooling degree days 0  
Year to date cooling degree days 268  
Moisture  
Dew Point 24 °F    
Average Humidity 65    
Maximum Humidity 76    
Minimum Humidity 49    
Precipitation  
Precipitation 0.00 in 0.13 in 1.12 in (1935)
Month to date precipitation 1.57  
Year to date precipitation 36.29  
Sea Level Pressure  
Sea Level Pressure 29.84 in    
Wind  
Wind Speed 6 mph (SW)    
Max Wind Speed 10 mph    
Max Gust Speed 22 mph    
T = Trace of Precipitation, MM = Missing Value Source: NWS Daily Summary

Daily Weather History Graph

Daily Weather History Graph

Search for Another Location

Airport:

Trip Planner

Search our weather history database for the weather conditions in past years. The results will help you decide how hot, cold, wet, or windy it might be!

Date:

Astronomy

Nov. 12, 2011 Rise Set
Actual Time 6:32 AM EST 4:11 PM EST
Civil Twilight 6:00 AM EST 4:43 PM EST
Nautical Twilight 5:25 AM EST 5:19 PM EST
Astronomical Twilight 4:50 AM EST 5:53 PM EST
Moon 5:19 PM EST (11/12) 8:17 AM EST (11/12)
Length of Visible Light 10h 42m
Length of Day
9h 38m
Full, 97% of the Moon is Illuminated
Nov 12
Full
Nov 18
Last Quarter
Nov 25
New
Dec 2
First Quarter
Dec 10
Full

Hourly Weather History & Observations

Time (EST) Temp. Windchill Dew Point Humidity Pressure Visibility Wind Dir Wind Speed Gust Speed Precip Events Conditions
12:56 AM 30.0 °F 21.1 °F 21.9 °F 72% 29.62 in - WNW 10.4 mph 19.6 mph N/A   Unknown
1:56 AM 30.0 °F 23.2 °F 21.9 °F 72% 29.66 in - Variable 6.9 mph - N/A   Unknown
2:56 AM 30.0 °F 21.7 °F 19.9 °F 66% 29.70 in - West 9.2 mph 21.9 mph N/A   Unknown
3:56 AM 30.0 °F 23.2 °F 19.9 °F 66% 29.74 in - Variable 6.9 mph - N/A   Unknown
4:56 AM 30.0 °F 24.1 °F 21.0 °F 69% 29.77 in - Variable 5.8 mph - N/A   Unknown
5:56 AM 28.9 °F 22.8 °F 19.9 °F 69% 29.79 in - Variable 5.8 mph - N/A   Unknown
6:56 AM 30.0 °F 26.5 °F 21.0 °F 69% 29.82 in - Variable 3.5 mph - N/A   Unknown
7:56 AM 30.9 °F 27.5 °F 21.9 °F 69% 29.85 in - Variable 3.5 mph - N/A   Unknown
8:56 AM 33.1 °F - 21.9 °F 64% 29.85 in - Calm Calm - N/A   Unknown
9:56 AM 36.0 °F 32.1 °F 24.1 °F 62% 29.86 in - Variable 4.6 mph - N/A   Unknown
10:56 AM 37.0 °F 31.6 °F 23.0 °F 57% 29.85 in - Variable 6.9 mph - N/A   Unknown
11:56 AM 39.0 °F 35.7 °F 24.1 °F 55% 29.84 in - Variable 4.6 mph - N/A   Unknown
12:56 PM 41.0 °F 35.8 °F 24.1 °F 51% 29.83 in - SSW 8.1 mph - N/A   Unknown
1:56 PM 41.0 °F 36.4 °F 23.0 °F 49% 29.83 in - Variable 6.9 mph - N/A   Unknown
2:56 PM 37.9 °F 32.1 °F 26.1 °F 62% 29.86 in - South 8.1 mph 21.9 mph N/A   Unknown
3:56 PM 37.9 °F 32.7 °F 25.0 °F 60% 29.86 in - SSW 6.9 mph - N/A   Unknown
4:56 PM 37.9 °F 32.1 °F 26.1 °F 62% 29.87 in - South 8.1 mph - N/A   Unknown
5:56 PM 37.9 °F 33.5 °F 27.0 °F 65% 29.89 in - Variable 5.8 mph - N/A   Unknown
6:56 PM 37.9 °F 35.5 °F 27.0 °F 65% 29.90 in - Variable 3.5 mph - N/A   Unknown
7:56 PM 37.9 °F - 28.0 °F 68% 29.92 in - Calm Calm - N/A   Unknown
8:56 PM 37.0 °F - 28.0 °F 70% 29.94 in - Calm Calm - N/A   Unknown
9:56 PM 37.0 °F - 28.9 °F 73% 29.95 in - Calm Calm - N/A   Unknown
10:56 PM 37.0 °F - 28.9 °F 73% 29.98 in - Calm Calm - N/A   Unknown
11:56 PM 37.0 °F - 30.0 °F 76% 30.00 in - Calm Calm - N/A   Unknown